Back to catalog

STARLINK-35046

AliveCommunicationsVLEO
NORAD 65701·PAYLOAD·🇺🇸 United States

Launched Sep 21, 2025 from Cape Canaveral Space Force Station

Loading…

Next Passes (next 24 hours)

TLE

FreshSource: CelesTrak SupGP

Epoch: Sep 14, 2026, 14:28 UTC

1 65701C 25212AB  26257.60326389  .00044344  00000+0  13110-2 0  2573
2 65701  53.1576 185.2902 0001230  85.2957  69.8989 15.34348655    11

Track STARLINK-35046 in real time with AllMySat

Download on the App Store